Tracking 19638 objects as of 21-Apr-2019
HD Live streaming from Space Station
objects crossing your sky now

COSMOS 1529

Track COSMOS 1529 now!
10-day predictions
COSMOS 1529 is classified as:


NORAD ID: 14618
Int'l Code: 1984-001H
Perigee: 1,468.2 km
Apogee: 1,518.5 km
Inclination: 74.0 °
Period: 115.7 minutes
Semi major axis: 7864 km
RCS: 0.6948 m2 (medium)
Launch date: January 5, 1984
Source: Commonwealth of Independent States (former USSR) (CIS)
Launch site: PLESETSK MISSILE AND SPACE COMPLEX (PKMTR)
aabbcc
Your satellite tracking list
Your tracking list is empty




NASA's NSSDC Master Catalog

Two Line Element Set (TLE):
1 14618U 84001H   19110.97128383 +.00000007 +00000-0 +15879-3 0  9996
2 14618 074.0107 352.0429 0031958 191.1546 277.6097 12.44826872430233
Source of the keplerian elements: AFSPC